This demonstration page uses our WeatherBlox Daily Observations layout. Learn more.

Left ArrowRight Arrow

44.89941, -97.11507

Hourly Observations for April 28, 2016

Temp ( °F °C ) Dew Point ( °F °C ) Humidity (%) Winds ( mph kmh ) Pressure ( in mb ) Visibility ( mi km ) Precip ( " mm )
12:53 am 00:53 Cloudy 38 3.3 34 1.1 86 86 NE 14 22 29.89 1012 10 16 0.00 0.03
1:02 am 01:02 Cloudy 38 3.3 33 0.6 83 83 ENE 15 24 29.91 1013 10 16 0.00 0.00
1:53 am 01:53 Cloudy 38 3.3 32 0 79 79 NE 15 24 29.89 1012 10 16 0.00 0.00
2:53 am 02:53 Cloudy with Light Rain 37 2.8 31 -0.6 79 79 NE 14 22 29.90 1013 10 16 0.00 0.03
3:53 am 03:53 Cloudy 37 2.8 30 -1.1 76 76 NE 17 28 29.91 1013 10 16 0.00 0.03
4:53 am 04:53 Cloudy 37 2.8 30 -1.1 76 76 ENE 14 22 29.92 1013 10 16 0.00 0.00
5:53 am 05:53 Cloudy 37 2.8 29 -1.7 73 73 NE 13 20 29.93 1014 10 16 0.00 0.00
6:53 am 06:53 Cloudy 36 2.2 30 -1.1 79 79 NE 13 20 29.95 1014 10 16 0.00 0.03
7:53 am 07:53 Cloudy with Rain 35 1.7 31 -0.6 85 85 ENE 13 20 29.98 1015 4 6 0.03 0.76
8:03 am 08:03 Cloudy with Rain 35 1.7 31 -0.6 85 85 NE 10 17 30.03 1017 3 5 0.01 0.25
8:19 am 08:19 Cloudy with Light Snow 34 1.1 31 -0.6 89 89 NE 7 11 30.03 1017 4 6 0.02 0.51
8:26 am 08:26 Cloudy with Light Snow 34 1.1 32 0 92 92 NE 7 11 30.03 1017 2 3 0.03 0.76
8:44 am 08:44 Cloudy with Light Snow 34 1.1 31 -0.6 89 89 NNE 6 9 30.06 1018 1 2 0.05 1.27
8:49 am 08:49 Cloudy with Light Snow 34 1 32 0 93 93 NNE 6 9 30.06 1018 2 3 0.06 1.52
8:53 am 08:53 Cloudy with Light Snow 34 1.1 32 0 92 92 NE 6 9 30.00 1016 3 4 0.06 1.52
9:19 am 09:19 Cloudy with Light Snow 35 1.7 31 -0.6 85 85 NE 9 15 30.06 1018 3 5 0.02 0.51
9:36 am 09:36 Cloudy with Light Snow 34 1.1 31 -0.6 89 89 NE 9 15 30.06 1018 2 3 0.04 1.02
9:43 am 09:43 Cloudy with Light Snow 34 1.1 31 -0.6 89 89 NE 8 13 30.06 1018 2 2 0.05 1.27
9:53 am 09:53 Cloudy with Light Snow 34 1.1 32 0 92 92 NNE 7 11 30.01 1016 3 4 0.06 1.52
10:05 am 10:05 Cloudy with Light Snow 34 1.1 32 0 92 92 NNE 8 13 30.06 1018 4 6 0.01 0.25
10:11 am 10:11 Cloudy with Light Rain 34 1.1 32 0 92 92 NNE 9 15 30.06 1018 5 8 0.01 0.25
10:27 am 10:27 Cloudy with Light Snow 35 1.7 31 -0.6 85 85 NE 13 20 30.06 1018 3 4 0.02 0.51
10:40 am 10:40 Cloudy with Light Snow 34 1.1 31 -0.6 89 89 NE 10 17 30.06 1018 1 2 0.03 0.76
10:53 am 10:53 Cloudy with Light Snow 34 1.1 31 -0.6 89 89 NE 10 17 30.04 1017 1 2 0.04 1.02
11:04 am 11:04 Cloudy with Light Snow 34 1.1 31 -0.6 89 89 NE 12 19 30.06 1018 2 2 0.00 0.03
11:15 am 11:15 Cloudy with Light Snow 35 1.7 31 -0.6 85 85 ENE 9 15 30.06 1018 1 2 0.01 0.25
11:25 am 11:25 Cloudy with Light Snow 35 1.7 32 0 89 89 NE 12 19 30.06 1018 2 2 0.01 0.25
11:33 am 11:33 Cloudy with Light Snow 35 1.7 31 -0.6 85 85 NE 10 17 30.06 1018 2 3 0.01 0.25
11:53 am 11:53 Cloudy with Light Snow 35 1.7 32 0 89 89 NE 12 19 30.05 1018 2 3 0.02 0.51
12:07 pm 12:07 Cloudy with Light Snow 36 2.2 32 0 86 86 NE 12 19 30.06 1018 4 6 0.00 0.03
12:53 pm 12:53 Cloudy 37 2.8 32 0 82 82 NE 8 13 30.06 1018 10 16 0.00 0.03
1:53 pm 13:53 Cloudy with Light Snow 38 3.3 34 1.1 86 86 NE 10 17 30.06 1018 9 14 0.00 0.03
2:16 pm 14:16 Cloudy with Light Snow 37 2.8 33 0.6 86 86 NE 14 22 30.09 1019 2 3 0.01 0.25
2:23 pm 14:23 Cloudy with Light Snow 36 2.2 33 0.6 89 89 NE 14 22 30.09 1019 2 3 0.01 0.25
2:26 pm 14:26 Cloudy with Light Snow 36 2.2 33 0.6 89 89 NE 14 22 30.09 1019 2 3 0.01 0.25
2:33 pm 14:33 Cloudy with Light Snow 36 2.2 33 0.6 89 89 NE 12 19 30.09 1019 1 2 0.02 0.51
2:46 pm 14:46 Cloudy with Light Snow 36 2.2 33 0.6 89 89 NNE 8 13 30.09 1019 2 3 0.03 0.76
2:53 pm 14:53 Cloudy with Light Snow 36 2.2 33 0.6 89 89 NNE 9 15 30.08 1019 2 3 0.03 0.76
3:18 pm 15:18 Cloudy with Light Snow 36 2.2 33 0.6 89 89 NE 10 17 30.09 1019 2 2 0.02 0.51
3:26 pm 15:26 Cloudy with Light Snow 35 1.7 32 0 89 89 NE 9 15 30.09 1019 1 2 0.02 0.51
3:36 pm 15:36 Cloudy with Light Snow 35 1.7 32 0 89 89 NE 7 11 30.09 1019 1 2 0.03 0.76
3:49 pm 15:49 Cloudy with Light Snow 34 1 32 0 93 93 NNE 7 11 30.09 1019 1 1 0.04 1.02
3:53 pm 15:53 Cloudy with Light Snow 34 1.1 32 0 92 92 NE 6 9 30.09 1019 1 1 0.05 1.27
4:07 pm 16:07 Cloudy with Light Snow 34 1.1 32 0 92 92 NNE 7 11 30.09 1019 1 1 0.01 0.25
4:23 pm 16:23 Cloudy with Light Snow 35 1.7 32 0 89 89 NNE 7 11 30.09 1019 1 2 0.02 0.51
4:31 pm 16:31 Cloudy with Light Snow 36 2.2 33 0.6 89 89 NNE 8 13 30.09 1019 2 2 0.02 0.51
4:40 pm 16:40 Cloudy with Light Snow 36 2.2 33 0.6 89 89 NNE 10 17 30.09 1019 3 4 0.03 0.76
4:53 pm 16:53 Cloudy with Light Snow 37 2.8 34 1.1 89 89 NNE 12 19 30.09 1019 6 10 0.03 0.76
5:53 pm 17:53 Cloudy 38 3.3 34 1.1 86 86 NE 12 19 30.09 1019 10 16 0.00 0.03
6:53 pm 18:53 Cloudy with Mist and Fog 38 3.3 35 1.7 89 89 ENE 9 15 30.11 1020 4 6 0.00 0.00
7:36 pm 19:36 Cloudy with Mist and Fog 39 3.9 36 2.2 89 89 ENE 8 13 30.12 1020 3 4 0.00 0.00
7:53 pm 19:53 Cloudy with Mist and Fog 39 3.9 36 2.2 89 89 NE 8 13 30.13 1020 2 3 0.00 0.00
8:07 pm 20:07 Cloudy with Mist and Fog 39 3.9 36 2.2 89 89 ENE 9 15 30.12 1020 2 3 0.00 0.00
8:19 pm 20:19 Cloudy with Mist and Fog 39 3.9 36 2.2 89 89 ENE 8 13 30.12 1020 3 4 0.00 0.00
8:29 pm 20:29 Cloudy with Mist and Fog 39 3.9 36 2.2 89 89 NE 8 13 30.12 1020 4 6 0.00 0.00
8:44 pm 20:44 Cloudy 39 3.9 36 2.2 89 89 E 7 11 30.12 1020 9 14 0.00 0.00
8:53 pm 20:53 Cloudy 39 3.9 36 2.2 89 89 E 8 13 30.15 1021 9 14 0.00 0.00
9:53 pm 21:53 Cloudy 39 3.9 36 2.2 89 89 ESE 3 6 30.16 1022 10 16 0.00 0.00
10:46 pm 22:46 Cloudy 39 3.9 36 2.2 89 89 Calm 30.15 1021 10 16 0.00 0.00
10:53 pm 22:53 Cloudy 40 4.4 36 2.2 86 86 Calm 30.17 1022 10 16 0.00 0.00
11:18 pm 23:18 Cloudy 39 3.9 36 2.2 89 89 ENE 3 6 30.15 1021 10 16 0.00 0.00
11:53 pm 23:53 Cloudy 39 3.9 36 2.2 89 89 NNE 5 7 30.16 1021 10 16 0.00 0.00

Powered by AerisWeather